Temp
79 77 73 72 71 68 66 65 62 61 60 59 58 58 57 57 56 56 56 55 54 55 53 54 53 53 51 50 50 50 49 50 50 49 50 52 55 55 54 55 53 54 55
76 72 70 69 67 65 65 64 63 62 62 63 63 61 58 57 56 55 54 54 53 53 53 51 51 51 50 49 48 47 46 49 49 44 45 46 49 54 54 52 53 51 52
72 68 67 65 65 63 63 65 63 63 64 61 61 58 57 55 54 54 52 52 52 52 51 51 50 50 49 47 46 46 46 43 47 47 43 40 39 44 49 50 50 50 49
73 67 65 63 63 63 63 64 64 64 63 62 59 56 56 54 55 53 52 51 51 51 52 50 49 48 48 46 46 48 45 45 43 45 49 46 44 38 39 48 51 50 51
72 66 65 65 65 65 63 63 63 64 62 61 60 58 56 55 55 52 51 49 49 50 50 50 48 47 46 46 45 44 44 44 42 41 41 41 44 41 38 35 41 45 51
72 68 67 66 65 66 63 62 62 63 61 60 59 58 55 54 52 51 50 49 49 48 49 50 47 46 45 45 45 44 43 42 42 42 41 39 36 34 34 33 36 36 43
71 69 66 65 64 62 61 60 61 60 59 58 58 56 55 54 52 51 50 48 47 47 46 46 45 44 45 45 45 43 42 41 40 40 40 40 38 38 36 35 34 35 46
68 68 66 64 64 61 60 59 60 58 58 56 55 55 55 53 53 52 50 49 48 46 46 45 45 45 45 45 44 42 41 41 40 39 40 40 39 40 39 36 33 32 38
66 67 66 64 63 61 59 58 59 58 57 56 54 53 53 52 50 49 48 47 47 48 46 45 44 44 44 44 43 41 41 41 40 40 40 40 40 40 40 39 38 32 28
65 65 64 63 63 61 58 58 58 57 56 54 53 52 51 51 49 48 47 46 46 46 44 44 43 43 43 44 43 41 42 40 40 40 39 39 40 40 40 39 39 38 32
63 62 58 61 61 60 59 57 57 56 54 53 52 51 50 50 48 47 46 45 45 45 45 45 44 43 43 43 41 41 41 40 39 39 39 39 40 38 38 39 38 37 36
60 62 59 56 51 51 56 55 55 54 53 53 51 50 49 48 47 46 46 45 44 45 45 44 44 44 43 42 41 40 41 39 38 37 37 36 43 36 38 37 36 36 37
58 56 57 55 50 43 45 52 54 52 51 52 49 48 47 47 45 45 45 45 44 43 44 43 42 42 41 41 41 40 39 38 37 36 34 34 33 32 33 34 33 34 40
61 51 46 40 46 48 43 51 51 47 50 50 48 45 45 46 45 45 44 42 43 42 41 41 40 40 40 41 41 41 38 37 37 34 33 31 29 27 28 32 30 33 32
62 58 52 48 44 45 47 51 52 49 49 48 47 45 46 45 45 43 43 42 41 41 40 39 38 38 40 40 36 39 36 35 34 34 34 31 31 32 30 28 26 27 28
59 63 57 54 49 48 48 50 51 49 49 48 47 47 46 46 43 42 42 41 40 39 38 37 33 31 31 34 35 37 34 34 33 32 32 31 32 30 32 31 30 27 23
54 62 61 56 55 50 49 48 50 49 48 48 48 47 46 45 43 43 43 41 40 39 37 34 33 30 26 33 34 37 32 29 26 25 29 30 30 28 29 32 30 31 30
59 60 60 60 57 54 49 48 50 48 47 47 47 47 46 45 44 43 42 41 40 38 36 35 34 32 31 32 33 34 29 26 26 26 24 25 23 23 21 23 25 25 26
56 58 58 59 56 55 50 48 48 46 46 45 46 47 45 45 43 42 41 41 40 38 37 38 36 34 30 32 32 32 30 29 25 25 23 24 22 27 27 22 18 18 19
60 58 58 57 54 52 51 47 46 45 43 45 46 47 45 45 43 41 40 42 41 40 41 39 39 38 30 32 32 31 30 31 29 28 27 28 25 27 27 23 22 17 14
59 59 58 55 52 49 48 38 36 38 40 43 46 45 45 43 42 42 43 42 41 40 38 37 36 36 32 30 33 32 29 31 31 30 27 26 27 26 25 27 23 19 20
58 56 55 54 52 51 39 36 35 36 36 36 37 38 38 40 44 42 42 41 40 38 36 35 33 33 34 32 32 32 32 30 31 27 25 23 26 25 24 23 23 23 21
53 57 56 53 51 50 41 36 35 36 36 36 35 35 36 37 41 40 38 38 38 36 35 34 31 31 31 29 32 31 30 29 27 25 28 27 25 24 22 23 23 19 18
51 56 54 50 46 48 44 40 38 39 37 35 35 35 35 35 33 38 37 37 36 35 34 33 32 31 29 27 26 23 22 28 24 20 18 17 20 16 14 16 18 16 18
55 53 49 45 45 47 44 44 41 40 36 36 36 36 36 36 33 34 34 34 34 34 34 34 33 32 29 30 29 27 24 22 22 20 19 14 14 17 18 21 20 18 20
53 53 51 48 48 48 45 43 41 40 37 35 35 36 36 36 35 34 32 32 35 35 35 35 33 33 35 34 33 32 32 31 29 25 20 20 22 22 21 22 20 22 17
MSLP
1004.65 1006.66 1008.74 1010.01 1010.92 1012.04 1013.12 1014.09 1014.81 1015.48 1015.84 1016.42 1016.67 1017.05 1017.58 1018.11 1018.74 1019.20 1019.37 1019.63 1019.81 1019.74 1019.70 1019.64 1019.80 1019.55 1019.76 1019.96 1019.89 1019.58 1019.24 1018.77 1018.81 1018.45 1017.81 1017.20 1017.36 1017.76 1018.07 1018.08 1018.76 1019.10 1019.23
1004.22 1006.57 1008.70 1010.45 1011.51 1012.55 1013.29 1014.09 1014.88 1015.42 1015.72 1015.90 1016.01 1016.40 1017.28 1018.10 1018.77 1019.42 1019.78 1019.97 1020.20 1020.09 1020.10 1020.18 1020.24 1020.19 1020.14 1020.40 1020.37 1020.18 1019.97 1019.28 1019.25 1019.45 1018.69 1018.07 1018.06 1018.16 1018.40 1018.75 1019.17 1019.52 1019.64
1003.69 1006.19 1008.44 1010.27 1011.81 1012.80 1013.45 1014.04 1014.69 1015.21 1015.10 1015.56 1016.11 1016.79 1017.56 1018.39 1018.93 1019.41 1019.97 1020.30 1020.37 1020.42 1020.51 1020.66 1020.68 1020.52 1020.51 1020.60 1020.76 1020.70 1020.56 1020.33 1019.91 1019.85 1019.94 1019.64 1019.68 1019.46 1018.93 1019.10 1019.43 1019.68 1019.99
1003.65 1006.12 1008.15 1009.89 1011.40 1012.55 1013.42 1013.78 1014.30 1014.87 1015.14 1015.51 1016.17 1016.80 1017.19 1017.73 1018.39 1019.09 1019.90 1020.49 1020.64 1020.75 1020.80 1020.99 1020.90 1020.86 1020.89 1021.03 1021.05 1021.16 1021.02 1020.92 1020.97 1020.69 1020.66 1020.55 1020.74 1020.90 1020.34 1019.90 1019.92 1019.98 1020.08
1003.65 1006.03 1008.09 1009.79 1011.24 1012.34 1013.24 1013.66 1014.18 1014.67 1015.17 1015.74 1016.01 1016.23 1016.72 1017.56 1018.33 1019.25 1019.85 1020.49 1020.85 1021.15 1021.26 1021.24 1021.18 1021.22 1021.34 1021.46 1021.49 1021.85 1021.87 1021.76 1021.71 1021.69 1021.64 1021.64 1021.71 1021.94 1021.90 1021.30 1021.25 1020.64 1020.68
1003.88 1005.80 1007.59 1009.22 1010.63 1011.78 1012.84 1013.63 1014.14 1014.56 1015.22 1015.82 1016.08 1016.30 1016.82 1017.73 1018.60 1019.27 1019.77 1020.33 1020.95 1021.29 1021.36 1021.45 1021.63 1021.85 1021.87 1022.11 1022.11 1022.20 1022.36 1022.26 1022.27 1022.13 1022.41 1022.92 1022.99 1023.30 1023.10 1022.91 1022.48 1022.01 1021.20
1004.03 1005.58 1007.22 1008.81 1010.15 1011.28 1012.68 1013.78 1014.39 1014.67 1015.34 1015.89 1016.42 1016.76 1017.17 1017.63 1018.39 1019.02 1019.55 1020.27 1020.72 1021.22 1021.65 1021.81 1022.06 1022.30 1022.33 1022.46 1022.29 1022.64 1022.58 1022.92 1022.95 1022.85 1022.88 1023.19 1023.57 1023.51 1023.72 1023.52 1023.27 1022.63 1021.46
1004.63 1005.69 1006.94 1008.45 1009.61 1010.93 1012.38 1013.69 1014.37 1014.95 1015.74 1016.28 1016.61 1017.14 1017.63 1017.95 1018.43 1018.83 1019.51 1020.06 1020.67 1021.33 1021.78 1022.04 1022.43 1022.45 1022.60 1022.50 1022.58 1022.83 1023.09 1023.24 1023.27 1023.20 1023.09 1023.35 1023.54 1023.57 1023.62 1023.79 1023.67 1023.09 1022.39
1005.79 1006.08 1006.95 1008.37 1009.51 1010.72 1012.15 1013.47 1014.24 1015.05 1015.88 1016.42 1016.84 1017.37 1017.71 1018.05 1018.61 1019.22 1019.71 1020.34 1020.89 1021.50 1021.83 1022.31 1022.63 1022.76 1022.68 1022.69 1023.12 1023.19 1023.39 1023.30 1023.32 1023.63 1023.63 1023.54 1023.67 1023.78 1023.87 1023.77 1023.85 1023.94 1023.95
1006.36 1007.17 1007.72 1008.71 1009.63 1010.71 1012.10 1013.34 1014.00 1014.68 1015.61 1016.52 1017.10 1017.49 1017.81 1018.21 1018.81 1019.43 1019.96 1020.69 1021.02 1021.44 1022.18 1022.47 1022.76 1022.94 1022.74 1022.89 1023.20 1023.55 1023.44 1023.59 1023.72 1024.13 1024.12 1024.08 1023.88 1023.93 1023.92 1023.98 1024.05 1024.18 1024.31
1007.09 1007.97 1008.60 1009.19 1009.94 1010.89 1012.03 1013.25 1013.84 1014.50 1015.36 1016.29 1017.05 1017.51 1017.94 1018.37 1018.98 1019.53 1020.09 1020.88 1021.12 1021.47 1022.16 1022.67 1022.78 1022.99 1023.10 1023.24 1023.45 1023.89 1023.83 1024.00 1024.20 1024.45 1024.46 1024.34 1024.16 1024.15 1024.23 1024.30 1024.36 1024.56 1024.49
1007.52 1008.16 1008.92 1009.56 1010.19 1010.95 1011.71 1012.66 1013.54 1014.35 1015.16 1016.09 1016.88 1017.52 1017.96 1018.52 1019.05 1019.64 1020.42 1020.79 1021.09 1021.50 1022.07 1022.57 1022.84 1023.12 1023.37 1023.40 1023.70 1023.99 1024.22 1024.34 1024.67 1024.96 1024.96 1024.95 1024.61 1024.66 1024.72 1024.77 1024.87 1024.82 1024.51
1007.11 1007.78 1008.76 1009.53 1010.29 1010.88 1011.73 1012.27 1013.04 1013.99 1014.76 1015.59 1016.80 1017.41 1017.94 1018.57 1019.13 1019.86 1020.30 1020.77 1021.19 1021.66 1022.11 1022.56 1022.98 1023.29 1023.57 1023.87 1024.26 1024.43 1024.61 1024.81 1025.17 1025.48 1025.66 1025.79 1025.65 1025.78 1025.69 1025.44 1025.58 1025.39 1024.90
1006.63 1007.22 1008.42 1009.71 1009.90 1010.83 1011.56 1012.22 1013.08 1013.90 1014.73 1015.45 1016.49 1017.22 1017.93 1018.46 1019.23 1019.79 1020.25 1020.68 1021.26 1021.75 1022.19 1022.68 1023.17 1023.50 1023.82 1024.18 1024.48 1024.76 1024.90 1025.17 1025.62 1026.06 1026.33 1026.62 1026.90 1026.96 1026.74 1026.51 1026.59 1026.19 1025.65
1005.53 1005.91 1007.26 1008.59 1009.85 1010.57 1011.37 1011.95 1012.76 1013.86 1014.59 1015.42 1016.26 1017.00 1017.70 1018.38 1019.09 1019.68 1020.17 1020.71 1021.32 1021.85 1022.41 1022.96 1023.41 1023.64 1024.09 1024.67 1024.96 1024.96 1025.09 1025.40 1025.83 1026.19 1026.54 1027.03 1027.30 1027.45 1027.54 1027.44 1027.45 1027.15 1026.70
1005.28 1005.30 1005.84 1007.07 1008.33 1009.68 1010.69 1011.52 1012.41 1013.36 1014.25 1015.07 1015.89 1016.73 1017.43 1018.13 1018.87 1019.55 1020.11 1020.74 1021.39 1022.05 1022.65 1023.09 1023.67 1024.23 1025.00 1025.46 1025.38 1025.01 1025.57 1025.81 1026.17 1026.38 1026.55 1027.06 1027.35 1027.73 1027.69 1027.72 1027.75 1027.86 1027.73
1005.70 1004.65 1004.82 1006.04 1007.26 1008.68 1009.99 1011.15 1012.02 1013.08 1013.87 1014.68 1015.46 1016.24 1016.96 1017.76 1018.63 1019.36 1020.00 1020.71 1021.35 1021.96 1022.54 1023.23 1023.99 1024.79 1025.52 1025.71 1025.72 1025.50 1026.17 1026.49 1026.80 1026.80 1026.90 1027.17 1027.60 1028.00 1027.80 1027.51 1027.84 1027.74 1027.99
1004.91 1004.91 1005.05 1005.46 1006.62 1007.98 1009.61 1011.01 1011.87 1012.72 1013.57 1014.28 1015.02 1015.77 1016.54 1017.40 1018.36 1019.14 1019.73 1020.45 1021.07 1021.65 1022.37 1023.06 1023.89 1024.70 1025.49 1025.81 1025.95 1026.03 1026.46 1026.73 1026.97 1027.16 1027.28 1027.50 1028.02 1028.48 1028.55 1028.22 1028.06 1028.11 1028.32
1006.25 1005.27 1005.47 1006.04 1006.82 1007.69 1009.16 1010.59 1011.49 1012.46 1013.27 1013.88 1014.60 1015.32 1016.15 1017.05 1017.98 1018.79 1019.48 1020.10 1020.60 1021.16 1021.82 1022.52 1023.33 1024.12 1025.02 1025.61 1025.95 1026.00 1026.40 1026.71 1027.04 1027.31 1027.54 1027.62 1028.21 1028.31 1028.34 1028.30 1028.23 1028.29 1028.51
1005.65 1005.69 1006.10 1006.49 1007.12 1007.92 1008.95 1010.21 1011.11 1011.95 1012.89 1013.55 1014.26 1014.93 1015.92 1016.75 1017.64 1018.51 1019.14 1019.67 1019.97 1020.48 1021.12 1021.93 1022.65 1023.31 1024.46 1025.26 1025.62 1025.85 1025.91 1026.03 1026.49 1026.93 1027.41 1027.64 1028.10 1028.30 1028.36 1028.25 1028.13 1028.55 1028.87
1005.77 1005.99 1006.34 1006.80 1007.51 1008.35 1009.02 1010.13 1011.13 1011.93 1012.82 1013.47 1013.97 1014.85 1015.83 1016.77 1017.87 1018.66 1018.59 1019.08 1019.42 1019.93 1020.58 1021.44 1022.10 1022.82 1023.71 1024.74 1025.11 1025.40 1025.52 1025.28 1025.55 1026.11 1026.93 1027.64 1027.92 1028.19 1028.38 1028.22 1028.43 1028.79 1028.97
1005.51 1006.02 1006.44 1006.90 1007.56 1008.55 1009.60 1010.44 1011.31 1012.00 1012.85 1013.60 1014.59 1015.53 1016.42 1017.36 1017.75 1017.77 1018.15 1018.64 1019.10 1019.69 1020.45 1021.32 1022.08 1022.62 1023.34 1023.99 1024.67 1025.07 1025.35 1025.41 1025.31 1025.82 1026.66 1027.53 1027.82 1028.16 1028.40 1028.38 1028.65 1028.63 1028.61
1005.60 1005.73 1006.31 1006.93 1007.83 1008.69 1009.97 1010.87 1011.67 1012.18 1012.88 1014.01 1014.92 1015.79 1016.51 1017.05 1017.16 1017.41 1017.86 1018.42 1018.88 1019.45 1020.24 1021.06 1021.84 1022.59 1023.12 1023.85 1024.20 1024.85 1025.36 1025.54 1025.62 1025.94 1026.21 1027.11 1027.65 1028.06 1028.38 1028.43 1028.49 1028.59 1028.65
1005.38 1005.62 1006.19 1006.92 1007.97 1008.86 1009.93 1010.99 1011.83 1012.46 1013.04 1014.03 1014.90 1015.66 1016.32 1017.04 1017.24 1016.92 1017.52 1018.17 1018.67 1019.18 1019.89 1020.66 1021.34 1022.09 1022.78 1023.64 1024.42 1025.05 1025.53 1025.64 1026.18 1026.71 1027.20 1027.57 1027.79 1028.15 1028.33 1028.41 1028.36 1028.57 1028.36
1004.81 1005.66 1006.34 1007.15 1008.08 1008.99 1010.01 1010.89 1011.75 1012.52 1013.31 1014.01 1014.72 1015.39 1016.09 1016.61 1016.99 1017.08 1017.51 1018.00 1018.52 1018.88 1019.44 1020.19 1020.84 1021.47 1022.12 1022.66 1023.55 1024.37 1024.96 1025.44 1025.90 1026.64 1027.15 1027.34 1027.59 1027.77 1027.90 1027.90 1027.81 1027.93 1028.10
1004.87 1005.60 1006.44 1007.38 1008.10 1008.88 1009.80 1010.80 1011.66 1012.33 1013.11 1013.79 1014.48 1015.05 1015.67 1016.41 1016.87 1017.20 1017.88 1018.42 1018.70 1018.92 1019.32 1019.78 1020.38 1021.12 1021.43 1021.88 1022.61 1023.35 1024.06 1024.63 1025.25 1025.88 1026.28 1026.50 1026.60 1026.65 1026.68 1026.87 1027.01 1027.17 1027.34
Wind_Speed
14 15 12 9 9 11 11 11 10 8 7 6 6 6 5 5 5 5 6 6 5 5 6 4 5 5 5 6 6 4 6 4 5 4 5 1 6 3 3 5 6 5 5
17 18 13 9 8 9 9 11 11 10 9 7 5 5 5 5 7 6 5 6 5 6 6 6 5 6 4 6 6 6 5 3 5 3 3 2 2 4 4 6 5 6 5
20 20 16 13 7 9 8 10 12 11 7 9 7 7 7 4 4 6 6 4 5 5 6 5 5 4 5 4 5 6 6 4 5 7 4 4 3 5 2 6 5 5 5
18 18 16 14 11 9 8 9 11 10 8 8 8 10 8 7 5 6 7 5 6 6 5 5 5 5 4 6 5 6 5 6 5 4 6 6 2 2 4 3 7 4 6
19 19 16 15 13 11 10 7 9 9 9 5 7 5 8 6 6 6 6 7 5 6 5 5 6 6 4 5 6 6 6 4 4 4 4 5 5 7 3 4 7 5 5
14 19 17 16 14 12 9 5 7 8 8 5 6 5 8 7 6 6 5 5 5 4 4 5 6 6 5 5 4 5 6 5 5 4 5 5 4 4 4 3 5 4 4
9 14 16 13 13 13 11 8 9 8 7 7 5 5 6 7 8 5 6 6 4 5 4 6 6 4 4 4 5 5 6 6 4 5 4 5 4 3 3 3 3 3 1
6 12 15 14 14 15 13 10 10 9 7 6 7 6 7 4 5 5 5 4 5 5 5 6 5 5 4 4 5 4 4 4 4 6 6 4 3 2 2 3 3 4 5
4 5 13 12 11 14 12 10 10 11 10 8 7 7 5 6 6 7 6 4 6 6 6 6 6 5 5 6 5 4 3 4 6 6 5 4 3 4 3 2 2 2 3
7 3 5 9 10 12 12 11 10 12 10 9 7 7 6 7 7 6 7 6 6 8 6 6 5 5 4 4 5 3 4 5 4 4 5 4 3 4 3 3 3 3 2
4 5 4 6 8 12 12 10 9 12 12 10 8 8 7 8 7 6 6 7 6 7 6 6 6 5 5 5 6 4 5 5 5 5 5 4 5 4 4 4 3 3 2
7 6 10 6 7 10 12 13 10 11 11 9 9 8 8 8 8 7 7 7 7 6 6 6 6 5 5 5 5 6 5 6 6 6 7 7 6 7 6 4 5 4 2
7 8 9 11 8 7 7 12 11 10 11 11 9 9 9 8 8 8 8 7 7 6 7 6 6 6 5 5 5 5 6 6 7 6 7 7 8 7 7 6 5 5 6
14 10 7 8 10 10 7 10 10 8 11 11 11 11 9 9 9 8 8 7 7 6 6 7 6 6 5 4 4 5 6 6 7 7 7 8 7 6 7 7 7 7 6
18 5 12 11 8 10 11 11 12 11 12 11 12 11 10 9 10 9 8 7 7 6 6 7 6 5 5 4 4 5 5 7 6 7 8 6 8 11 10 5 5 7 6
13 18 15 15 16 13 13 14 13 14 14 13 13 12 12 11 10 9 9 8 7 7 7 7 7 7 4 5 8 6 5 6 6 5 6 7 8 6 8 8 10 9 5
20 11 3 14 13 15 14 14 13 13 15 14 13 14 13 12 12 11 11 11 10 9 8 8 8 7 4 7 7 7 5 5 3 4 4 5 6 7 5 4 6 9 10
12 8 6 4 10 12 14 12 13 14 15 14 14 14 14 13 13 13 13 12 10 10 9 9 9 9 7 11 9 11 5 4 4 4 3 5 6 4 3 3 3 3 5
17 5 7 5 6 10 14 14 14 14 15 14 14 14 14 13 14 13 12 10 11 10 10 10 10 10 9 14 13 9 7 6 4 4 3 3 6 4 3 2 2 2 2
5 4 2 1 5 6 13 14 13 14 15 14 13 12 13 13 13 10 11 10 10 10 9 11 10 13 11 16 14 10 3 8 7 7 6 5 7 4 3 3 1 4 1
3 2 1 4 6 5 7 7 7 10 10 9 10 12 12 10 10 13 9 10 9 8 7 7 6 9 13 11 15 12 4 3 5 6 7 6 8 5 3 4 5 2 3
4 4 3 3 6 7 6 8 8 8 9 10 9 11 11 10 13 11 10 9 8 7 8 7 5 5 9 16 14 11 6 7 3 3 7 7 9 6 2 3 2 4 4
6 5 5 6 7 6 8 8 7 10 12 13 11 10 10 10 8 11 9 8 7 6 7 7 5 5 5 7 15 11 6 2 2 5 9 13 8 4 2 3 3 3 3
5 3 4 6 6 5 8 8 10 10 13 13 11 8 9 10 5 6 5 6 6 6 6 7 7 6 6 6 5 3 4 6 6 6 5 5 4 4 1 4 4 3 2
4 4 4 6 7 6 9 8 11 11 10 11 10 9 9 6 3 2 4 4 4 5 6 6 7 8 7 7 11 10 6 4 4 5 4 2 2 4 5 5 4 3 4
4 6 5 5 7 8 10 10 10 11 11 10 8 8 8 8 5 5 4 8 5 6 9 12 7 3 7 17 20 19 16 16 14 6 4 5 6 6 4 4 4 5 4
Wind_Direction
171 147 141 137 125 126 134 144 138 144 132 158 152 152 139 119 101 83 79 70 37 47 6 43 45 359 68 30 16 338 347 20 14 350 338 304 120 113 24 86 74 8 70
152 138 142 136 132 139 149 149 150 157 183 179 159 120 115 88 97 94 79 79 64 27 68 21 47 20 47 52 21 3 356 356 46 3 276 10 125 50 82 74 74 50 32
153 143 150 144 145 159 162 167 162 179 191 107 98 87 91 118 135 147 102 82 76 69 53 49 38 47 44 44 30 8 29 336 27 42 32 355 23 319 127 97 97 98 92
144 142 152 154 170 171 174 183 165 179 131 140 142 155 169 164 115 101 112 92 80 60 69 55 57 40 59 40 29 19 12 4 29 26 7 21 22 20 353 65 26 70 87
146 148 159 164 175 177 172 195 163 173 131 204 156 180 108 116 108 105 110 113 92 77 56 61 52 54 43 58 52 34 20 19 29 45 12 15 66 30 5 346 5 359 2
134 148 160 162 174 178 154 171 170 163 144 170 136 180 116 127 122 142 143 117 120 107 89 82 68 50 54 55 52 67 39 42 27 49 59 56 44 30 28 344 356 309 297
155 152 153 165 171 160 151 165 193 157 153 148 125 96 109 118 123 141 124 134 134 104 88 75 66 78 69 65 66 65 61 48 44 25 78 86 79 74 36 35 322 293 8
133 157 157 167 175 152 160 166 193 143 141 143 144 142 140 134 127 113 118 98 100 101 104 95 92 85 80 63 75 69 79 72 70 46 32 88 85 67 59 63 352 338 17
155 163 150 159 173 153 155 169 178 163 164 166 141 138 155 123 111 93 95 94 104 119 113 112 106 93 86 82 66 72 77 65 70 46 24 56 88 67 69 40 24 81 351
130 149 136 151 161 150 153 174 185 161 156 150 152 155 139 120 124 131 124 130 106 103 125 121 118 114 100 105 109 80 70 67 68 66 54 39 36 59 60 30 32 42 32
95 116 68 143 140 151 159 171 185 159 161 158 163 152 143 135 133 130 120 134 134 133 133 134 129 123 113 99 86 92 75 73 72 75 46 35 44 72 33 37 39 25 25
185 199 167 163 147 159 162 170 179 162 158 159 160 154 147 143 142 137 147 135 136 133 131 131 122 118 109 91 78 67 76 75 67 60 56 22 36 27 25 40 24 10 314
194 186 178 186 163 167 164 168 174 164 159 157 156 153 154 151 148 155 142 152 139 139 143 136 131 123 116 109 106 110 95 80 66 63 59 43 31 29 0 39 14 352 332
286 178 172 192 171 171 159 166 173 147 157 156 165 161 165 159 156 153 154 142 144 143 141 122 115 119 113 109 128 127 116 106 94 80 67 64 52 39 360 41 11 355 343
266 225 179 177 177 168 170 178 174 158 165 167 172 166 163 159 154 154 151 142 142 133 121 122 133 117 111 71 20 99 98 114 106 117 99 90 90 74 58 56 24 11 358
301 253 186 179 177 177 179 183 183 171 174 175 175 167 167 162 154 156 155 146 142 145 152 124 93 85 74 88 46 90 91 76 79 77 110 103 57 101 82 80 69 62 32
249 277 1 175 177 178 179 189 189 172 180 178 175 173 169 169 160 164 163 167 161 158 135 126 128 126 125 139 94 108 107 103 83 53 68 83 79 31 12 58 130 80 61
2 17 13 14 163 157 169 179 195 178 184 177 181 176 170 173 167 171 174 171 166 161 155 160 157 150 161 160 142 125 114 107 116 112 106 100 90 54 6 10 48 68 77
286 24 25 27 121 154 161 178 193 175 185 180 183 180 171 176 171 177 173 174 172 163 166 162 168 165 148 170 170 174 156 150 140 111 80 85 103 72 6 263 140 111 88
334 4 159 54 126 157 157 176 190 174 184 180 184 175 168 180 172 172 177 186 173 170 169 167 179 158 155 180 185 205 255 173 165 156 140 121 126 102 21 331 270 109 24
302 119 205 164 145 144 166 155 160 167 169 167 164 158 168 155 166 197 180 182 176 171 154 158 158 140 150 177 190 207 255 262 155 158 158 141 141 120 53 360 48 68 290
229 162 213 158 126 153 108 147 155 147 130 115 118 139 153 178 200 188 181 179 179 166 156 160 155 152 154 160 185 195 211 318 158 135 102 134 137 129 81 59 21 297 292
277 155 216 152 131 156 134 151 149 139 133 136 148 161 173 195 208 188 178 176 184 170 164 168 162 170 144 151 168 177 181 14 48 89 109 130 132 152 188 212 261 290 266
220 192 199 135 139 166 141 151 154 148 144 151 157 164 177 199 246 165 166 175 182 171 167 172 171 164 145 146 144 152 156 157 103 114 118 149 162 203 208 180 229 238 212
147 143 138 130 142 161 151 162 160 157 160 162 167 171 188 186 151 141 150 157 168 163 169 173 172 171 180 173 165 171 171 168 171 148 131 149 189 210 214 219 203 199 176
156 150 163 160 172 174 163 160 164 172 169 169 170 176 176 187 174 140 119 59 157 134 138 156 158 172 175 164 171 180 189 189 184 177 188 201 210 213 202 198 188 191 194